This is the latest recevied weather packets stored in our database for station/object KI4HRG. If no packets are shown the sender has not sent any weather packets the latest 10 day(s).
| Time | Temp. | Humidity | Pressure | Rain* | Wind** | Luminosity | Snow |
|---|---|---|---|---|---|---|---|
| 1777443891 | 18.33° C | 99% | 1015.1 hPa | 3.56 mm | - | 0 W/m² | - |
| 1777443587 | 18.33° C | 99% | 1015 hPa | 3.05 mm | - | 0 W/m² | - |
| 1777443282 | 17.78° C | 99% | 1015 hPa | 3.05 mm | - | 0 W/m² | - |
| 1777442981 | 17.78° C | 99% | 1015.5 hPa | 4.83 mm | - | 0 W/m² | - |
| 1777442677 | 17.78° C | 99% | 1016 hPa | 7.11 mm | - | 0 W/m² | - |
| 1777442373 | 17.78° C | 99% | 1016.3 hPa | 7.87 mm | - | 0 W/m² | - |
| 1777442070 | 17.78° C | 99% | 1016.7 hPa | 6.1 mm | - | 0 W/m² | - |
| 1777441765 | 17.78° C | 99% | 1015.9 hPa | 6.1 mm | - | 0 W/m² | - |
| 1777441460 | 17.78° C | 99% | 1016 hPa | 14.99 mm | - | 0 W/m² | - |
| 1777441155 | 17.78° C | 99% | 1016.5 hPa | 13.72 mm | - | 0 W/m² | - |
| 1777440851 | 17.78° C | 99% | 1017 hPa | 7.87 mm | - | 0 W/m² | - |
| 1777440542 | 17.78° C | 99% | 1017.1 hPa | 6.1 mm | - | 0 W/m² | - |
| 1777440237 | 17.22° C | 99% | 1015.8 hPa | 4.32 mm | - | 0 W/m² | - |
| 1777439934 | 17.22° C | 99% | 1016.2 hPa | 6.1 mm | - | 0 W/m² | - |
| 1777439630 | 17.22° C | 99% | 1016.3 hPa | 14.99 mm | - | 0 W/m² | - |
| 1777439326 | 17.22° C | 99% | 1015.8 hPa | 18.54 mm | - | 0 W/m² | - |
| 1777439021 | 17.22° C | 99% | 1015.7 hPa | 15.49 mm | - | 0 W/m² | - |
| 1777438720 | 17.22° C | 99% | 1016 hPa | 13.72 mm | - | 0 W/m² | - |
| 1777438415 | 17.22° C | 99% | 1016.2 hPa | 12.7 mm | - | 0 W/m² | - |
| 1777438111 | 17.22° C | 99% | 1015.9 hPa | 13.72 mm | - | 0 W/m² | - |
| 1777437807 | 17.22° C | 99% | 1015.5 hPa | 4.32 mm | - | 0 W/m² | - |
| 1777437503 | 17.22° C | 99% | 1015.5 hPa | 3.05 mm | - | 0 W/m² | - |
| 1777437201 | 17.22° C | 99% | 1015.3 hPa | 6.1 mm | - | 0 W/m² | - |
| 1777436897 | 17.22° C | 99% | 1015.1 hPa | 4.83 mm | - | 0 W/m² | - |
| 1777436595 | 17.22° C | 99% | 1016 hPa | 3.56 mm | - | 0 W/m² | - |
* Rain latest hour (hover to see other rain measurements)
** Current wind speed in m/s (hover to see current wind gust speed)